SCP
4 3 4 5 5 4 3 3 3 2 2 2 1 1 1 1 1 1 1 1 1 1 1 0 0 0 0 0 0 0 0 0 0 0 0 0 0 0 0 0 0 0 0
5 5 6 7 6 5 4 4 3 2 2 2 1 1 1 1 1 1 1 1 1 1 1 1 0 0 0 0 0 0 0 0 0 0 0 0 0 0 0 0 0 0 0
8 9 9 8 7 5 4 4 3 3 2 2 1 1 1 1 1 1 1 1 1 1 1 1 1 1 0 0 0 0 0 0 0 0 0 0 0 0 0 0 0 0 0
9 9 9 7 6 5 4 3 3 2 2 2 1 1 1 1 1 1 1 1 1 1 1 1 1 1 1 0 0 0 0 0 0 0 0 0 0 0 0 0 0 0 0
6 7 7 6 5 4 4 3 2 2 2 2 1 1 1 1 1 1 1 1 1 1 1 1 1 1 1 1 0 0 0 0 0 0 0 0 0 0 0 0 0 0 0
4 5 5 5 4 4 3 2 2 2 2 1 1 1 1 1 1 1 1 1 1 1 1 1 1 1 1 0 0 0 0 0 0 0 0 0 0 0 0 0 0 0 0
4 4 4 4 3 3 3 2 2 1 1 1 1 1 1 1 1 0 0 0 1 1 1 1 1 1 1 0 0 0 0 0 0 0 0 0 0 0 0 0 0 0 0
4 4 4 4 3 3 2 2 2 1 1 1 1 1 1 1 0 0 0 0 0 0 0 1 1 1 1 0 0 0 0 0 0 0 0 0 0 0 0 0 0 0 0
3 3 4 4 3 3 2 2 2 2 2 1 1 1 1 1 0 0 0 0 0 0 0 0 1 1 0 0 0 0 0 0 0 0 0 0 0 0 0 0 0 0 0
3 3 4 3 3 3 2 3 3 3 2 2 1 1 1 1 0 0 0 0 0 0 0 0 0 0 0 0 0 0 0 0 0 0 0 0 0 0 0 0 0 0 0
3 4 4 3 3 3 3 4 4 4 3 2 1 1 1 1 1 0 0 0 1 1 0 0 0 0 0 0 0 0 0 0 0 0 0 0 0 0 0 0 0 0 0
4 4 4 3 3 4 4 5 5 5 3 2 1 1 1 1 1 0 0 0 1 1 1 1 1 0 0 0 0 0 0 0 0 0 0 0 0 1 1 0 0 0 0
3 4 4 4 4 5 5 6 6 5 4 2 1 1 1 1 1 1 0 0 0 1 1 1 0 0 0 0 0 0 0 0 0 0 0 0 0 0 1 0 0 0 0
4 4 4 4 5 6 6 6 6 5 5 3 2 1 1 2 2 2 1 0 0 0 0 0 0 0 0 0 0 0 0 0 0 0 0 0 0 0 0 0 0 0 0
5 5 5 5 6 7 7 6 5 5 4 3 2 2 2 2 1 1 1 0 0 0 0 0 0 0 0 0 0 0 0 0 0 0 0 0 0 0 0 1 1 1 1
6 6 6 7 7 7 6 5 4 3 2 2 2 2 1 1 1 1 1 0 0 0 0 0 0 0 0 0 0 0 0 0 0 0 0 0 0 0 0 1 1 1 1
6 7 7 7 8 7 7 6 4 2 1 1 1 1 1 1 1 0 0 0 0 0 0 0 0 0 0 0 0 0 0 0 0 0 0 0 0 0 0 0 0 1 1
6 6 6 7 7 6 7 7 5 3 2 1 0 0 0 0 0 0 0 0 0 0 0 0 0 0 0 0 0 0 0 0 0 0 0 0 0 0 0 0 0 0 0
4 4 5 6 6 4 4 5 4 2 2 2 1 0 0 0 0 0 0 0 0 0 0 0 0 0 0 0 0 0 0 0 0 0 0 0 0 0 0 0 0 0 0
3 3 4 5 4 3 2 2 1 1 1 1 1 0 0 0 0 0 0 0 0 0 0 0 0 0 0 0 0 0 0 0 0 0 0 0 0 0 0 0 0 0 0
2 2 3 3 3 2 1 1 1 1 1 1 1 0 0 0 0 0 0 0 0 0 0 0 0 0 0 0 0 0 0 0 0 0 0 0 0 0 0 0 0 0 0
2 2 2 2 2 2 1 1 0 0 0 1 0 0 0 0 0 0 0 0 0 0 0 0 0 0 0 0 0 0 0 0 0 0 0 0 0 0 0 0 0 0 0
1 1 1 2 1 1 1 0 0 0 0 0 0 0 0 0 0 0 0 0 0 0 0 0 0 0 0 0 1 1 1 0 0 0 0 0 0 0 0 0 0 0 0
1 1 1 1 1 1 0 0 0 0 0 0 0 0 0 0 0 0 0 0 0 0 0 0 0 0 0 0 1 1 1 1 0 0 0 0 0 0 0 0 0 0 0
1 1 1 0 0 0 0 0 0 0 0 0 0 0 0 0 0 0 0 0 0 0 0 0 0 0 0 0 0 1 1 0 0 0 0 0 0 0 0 0 0 0 0
1 1 1 0 0 0 0 0 0 0 0 0 0 0 0 0 0 0 0 0 0 0 0 0 0 0 0 0 0 0 0 0 0 0 0 0 0 0 0 0 0 0 0
Wind_Speed
4 4 3 3 3 2 2 2 3 2 2 3 2 2 2 2 2 2 2 2 2 2 1 2 2 2 1 1 1 1 1 2 2 2 1 1 1 2 2 2 3 4 4
5 4 4 3 3 2 2 2 2 2 2 3 2 2 2 2 2 2 3 2 2 2 3 2 2 2 2 1 1 2 2 2 3 2 1 1 2 2 2 2 3 3 3
4 4 3 3 3 3 2 2 2 2 2 2 2 2 2 2 2 2 2 2 3 3 3 3 3 2 2 1 2 2 1 1 2 2 2 1 1 1 1 2 2 2 3
4 4 3 3 3 3 2 2 2 2 2 2 2 2 2 2 2 2 2 2 2 2 2 2 2 3 3 3 2 2 2 1 1 1 1 1 1 1 1 1 1 1 2
4 3 3 3 3 2 2 2 2 2 3 2 2 2 2 2 2 2 2 2 2 2 2 2 2 3 3 3 3 3 3 2 2 2 1 1 1 0 1 1 1 2 2
4 3 3 3 3 2 2 2 2 2 2 1 1 2 2 2 2 3 2 2 2 2 2 2 3 2 3 4 4 4 5 5 4 3 2 2 3 3 2 2 1 0 2
3 3 2 3 3 2 2 2 1 2 2 1 1 2 2 3 3 3 3 2 3 3 3 3 3 2 2 2 3 4 4 6 7 6 4 4 4 4 3 2 2 2 4
2 3 3 3 2 2 2 2 2 2 2 2 2 2 2 3 4 4 4 2 2 3 3 4 3 2 2 2 2 2 2 3 5 5 5 5 4 4 5 5 4 3 2
2 2 3 3 3 2 2 3 2 2 2 2 2 3 3 3 4 5 4 2 2 3 3 3 3 3 3 3 3 2 2 3 4 5 5 5 5 5 4 2 1 1 2
3 3 3 3 3 3 3 3 2 2 3 2 2 3 4 4 4 5 5 2 2 3 2 3 4 4 3 4 4 4 4 4 3 2 2 3 3 4 5 5 4 3 2
2 2 2 2 3 3 2 2 2 2 2 2 2 3 3 4 4 5 5 3 3 3 3 2 3 4 4 5 5 4 6 4 3 3 2 2 2 3 3 4 4 4 4
1 1 1 2 2 2 2 2 2 2 2 2 2 3 2 3 3 4 5 5 4 3 3 3 3 4 5 5 4 5 5 3 2 2 2 2 3 3 4 4 5 5 5
1 1 2 2 2 2 3 3 2 2 2 3 2 3 3 2 3 5 5 5 5 4 3 4 4 4 4 3 4 5 3 2 2 2 3 4 3 4 3 2 3 3 4
2 2 2 2 2 2 2 2 2 3 3 3 3 3 3 3 2 2 2 2 2 2 2 3 3 3 3 3 2 2 2 3 3 3 3 3 2 2 2 2 2 2 2
2 2 2 2 2 2 2 3 3 4 4 4 4 3 3 4 5 4 3 3 2 2 1 0 0 0 1 1 2 2 2 2 2 2 2 2 2 2 2 2 2 1 2
1 2 2 2 3 3 3 3 4 4 5 6 6 5 5 6 6 5 5 5 5 4 2 2 2 3 3 3 3 3 3 3 3 3 3 2 3 3 3 2 2 2 3
2 2 2 2 2 3 3 3 3 4 4 4 5 6 6 6 5 5 6 5 4 4 2 2 3 3 4 4 4 4 4 3 3 3 3 3 3 3 2 2 2 2 2
2 2 2 2 2 2 3 3 3 3 3 3 3 4 5 5 5 5 4 2 1 2 3 3 3 3 3 3 3 3 3 2 2 3 3 2 3 2 2 2 2 2 2
2 2 2 2 2 2 3 3 2 2 2 2 2 2 3 2 2 2 3 3 3 4 4 3 4 4 3 3 3 3 3 3 3 3 2 3 3 2 3 3 3 4 3
2 3 3 2 2 2 2 2 2 2 2 2 2 3 2 1 1 2 2 3 3 4 4 4 3 3 3 3 2 2 2 2 3 3 3 3 3 3 4 4 4 3 3
2 2 3 2 2 2 2 2 2 3 3 3 3 4 4 3 3 3 3 3 4 4 4 3 3 2 2 2 2 2 2 2 2 3 3 3 3 3 3 3 3 4 3
1 2 2 2 2 2 3 3 3 3 4 4 3 3 4 3 3 3 3 4 4 4 3 3 2 2 2 2 2 2 2 2 2 2 3 3 3 3 2 2 3 3 3
1 2 2 3 3 3 3 3 2 3 3 3 3 2 2 3 3 3 3 3 2 2 2 2 2 2 1 1 1 2 2 2 2 2 3 2 2 2 2 2 3 3 3
2 2 2 2 2 2 3 3 3 3 3 3 2 3 3 3 3 3 3 2 2 2 2 2 2 2 2 1 1 1 2 2 2 2 3 3 2 2 2 2 3 4 3
2 2 2 2 2 3 3 3 2 3 3 3 2 2 2 2 2 2 2 2 2 1 1 1 1 1 2 2 1 1 1 2 2 2 2 2 3 3 3 3 3 3 3
2 2 2 2 2 2 2 3 3 3 3 2 2 2 2 2 2 2 1 1 2 2 2 2 2 2 2 1 0 0 1 2 2 2 2 2 2 3 3 3 4 3 3
Wind_Direction
167 165 161 160 159 152 154 163 167 171 171 175 184 189 194 198 200 189 195 181 191 223 239 221 238 227 212 219 184 164 170 164 198 257 245 246 194 211 205 217 224 219 226
162 155 160 158 151 151 159 168 162 168 174 178 177 181 202 202 203 200 206 198 197 212 229 228 244 233 211 217 195 195 199 190 180 210 245 234 225 223 212 223 236 229 229
149 149 150 154 158 168 178 176 165 173 180 186 177 186 208 207 201 204 203 208 214 221 225 218 224 208 222 218 194 199 209 203 170 174 217 231 245 237 215 254 255 264 248
148 152 159 169 170 172 171 171 175 179 183 194 196 203 205 194 190 200 193 203 223 240 239 222 216 203 208 209 204 204 195 158 155 161 189 220 238 250 166 227 287 289 272
147 158 177 173 166 160 163 175 183 187 190 194 191 207 207 197 201 192 199 204 217 242 247 234 228 223 220 212 203 196 189 178 173 176 188 192 214 174 218 216 228 271 282
155 168 169 153 152 157 165 165 161 173 183 174 181 192 197 220 208 198 201 213 215 213 227 242 244 231 231 225 223 211 195 189 188 187 196 201 219 213 207 203 202 238 286
150 149 148 150 148 165 171 156 169 192 192 196 213 201 205 225 221 220 224 212 220 220 214 217 238 243 227 232 242 242 234 221 200 185 192 208 209 208 192 206 212 207 232
154 160 162 161 170 177 168 181 202 208 205 204 213 220 224 243 233 226 224 227 231 228 218 214 215 223 228 216 227 246 255 247 219 201 199 208 211 208 197 198 205 221 265
168 182 181 176 179 182 193 204 208 203 218 215 210 213 223 249 243 232 219 227 238 242 232 213 201 207 225 205 194 216 258 279 257 222 214 214 210 208 187 147 156 158 262
197 202 197 186 183 195 213 221 219 207 223 225 226 226 222 237 246 231 215 207 233 242 242 232 220 214 215 199 196 203 228 250 251 253 245 243 230 225 206 188 185 185 211
215 209 194 207 202 203 208 219 227 229 236 240 241 244 236 235 242 235 219 202 215 227 234 234 235 220 220 224 214 213 226 227 228 222 231 249 253 241 229 210 195 188 199
192 207 214 228 226 214 202 226 233 226 229 246 252 262 260 243 233 238 233 230 217 209 229 232 230 221 221 225 224 234 233 212 198 208 230 244 245 246 242 231 220 218 218
191 237 246 251 246 228 214 224 233 230 225 236 238 248 260 258 247 241 237 239 233 217 228 236 237 225 219 222 232 230 213 194 183 208 232 243 241 240 243 246 246 237 246
213 248 258 266 277 279 255 239 231 231 235 239 236 243 252 256 260 259 255 248 240 238 248 254 248 232 224 230 238 235 213 202 199 216 231 245 253 245 239 232 239 241 264
219 243 261 268 266 272 266 246 238 234 224 220 231 231 235 254 252 240 234 233 223 218 189 83 21 227 231 237 235 235 228 216 220 229 231 246 252 249 253 241 225 221 233
230 246 247 251 261 260 262 280 281 265 256 234 227 225 238 242 245 237 233 240 239 207 172 208 223 223 225 227 229 235 231 226 225 223 225 231 237 240 252 255 229 224 244
226 248 257 255 253 253 260 259 279 299 292 264 251 246 249 254 247 237 233 235 227 188 195 228 233 231 230 227 226 226 231 232 223 221 226 231 235 237 238 246 244 243 252
234 249 256 256 255 252 252 249 239 246 275 289 283 265 260 253 250 243 228 184 215 203 220 232 239 239 234 229 226 227 230 229 220 221 225 230 231 231 237 242 240 239 247
242 246 252 252 252 252 251 250 249 245 251 268 288 296 269 252 260 255 190 194 216 225 229 232 234 235 237 235 229 220 216 219 220 213 219 228 228 223 233 241 241 241 242
254 258 264 261 264 264 259 259 262 257 251 250 253 255 256 222 228 238 219 221 224 231 232 233 238 239 237 232 228 221 222 229 229 225 229 232 228 221 229 236 236 236 240
257 268 280 281 273 269 260 255 255 250 246 246 251 247 217 215 224 226 224 224 225 231 234 233 237 238 232 224 224 225 222 237 241 235 234 236 233 230 232 232 238 238 239
257 261 264 266 272 274 264 253 254 255 251 249 256 258 236 238 234 229 230 234 235 231 223 212 218 228 224 219 216 214 228 244 254 251 242 236 230 227 226 229 238 240 239
270 279 282 279 274 271 270 259 248 254 259 256 248 250 243 242 240 233 232 232 232 227 218 202 202 220 231 207 195 195 210 237 250 244 239 236 229 227 221 223 233 244 248
260 269 272 273 274 273 269 268 261 258 255 258 257 248 246 242 241 244 239 231 218 217 217 206 193 185 194 202 203 204 224 246 250 241 234 229 230 229 224 226 233 236 236
274 273 265 266 270 269 270 268 263 262 257 252 250 250 254 248 240 240 234 222 201 194 200 205 195 181 183 203 220 235 251 250 247 251 243 236 239 238 236 232 232 233 234
269 269 267 269 273 279 277 272 273 271 261 260 256 250 243 237 238 238 220 195 180 186 199 205 200 194 191 173 160 262 258 250 246 242 234 237 240 247 245 240 236 234 236